DIRECTV 5 (TEMPO 1)

Last updated on Sun Apr 12 2026 00:02:50 GMT+0000 (Coordinated Universal Time)

1 27426U 02023A 26101.49885064 -.00000052 00000+0 00000+0 0 9998 2 27426 4.7070 76.1228 0003524 311.6631 241.4213 1.00272230 87450
UTC large
Height (km)
Speed (km/s)
/
Latitude / Longitude
Inclination (degrees)
Orbital Period (minutes)
Azimuth
Elevation
Range (km)
Doppler Factor

Next 0 passes for location: London (51.5072 / 0.1276)

Sorry there are no passes over London.
DIRECTV 5 (TEMPO 1)